Dewpoint
42 48 54 64 66 65 64 64 64 63 63 62 62 63 63 61 56 54 54 56 57 59 60 62 63 64 65 66 66 65 65 65 65 65 66 65 65 65 64 64 64 64 64
44 44 45 50 56 63 65 64 63 63 63 63 64 64 63 63 62 58 54 54 59 60 60 60 61 63 64 64 65 66 66 66 66 66 66 66 66 66 65 65 64 64 64
46 46 44 44 48 55 61 64 65 65 64 63 63 63 64 64 64 63 61 57 55 59 61 61 61 61 63 64 64 65 65 65 66 66 66 66 66 66 65 66 65 64 64
46 46 46 44 43 45 53 60 63 64 64 63 64 64 64 64 64 63 63 62 59 55 58 60 63 63 63 64 64 64 64 64 64 65 66 66 66 66 66 65 65 65 64
46 46 46 46 46 45 47 50 55 60 62 63 64 63 63 63 64 64 64 64 63 62 61 58 59 61 63 63 62 61 62 64 64 64 64 64 65 65 65 66 65 65 65
48 48 47 47 48 47 48 50 51 55 60 62 63 62 63 63 63 63 63 63 64 63 62 60 57 57 58 59 62 62 61 61 62 63 64 64 64 64 64 65 65 65 65
47 48 47 48 49 47 47 47 49 49 54 61 61 61 61 62 62 62 62 62 62 62 61 60 58 61 62 60 60 61 61 60 60 62 63 64 64 63 62 62 64 65 64
49 49 48 48 49 48 48 48 48 47 50 56 57 57 55 58 60 60 62 62 62 62 62 60 60 60 61 60 59 59 59 60 60 61 61 63 63 63 62 62 61 62 61
48 48 48 49 50 50 50 49 49 49 48 50 56 57 53 52 54 57 58 59 60 60 61 61 60 59 58 59 59 59 58 58 59 60 60 61 62 62 61 62 61 62 62
49 48 48 48 51 52 52 51 52 53 53 50 51 55 57 56 52 50 53 55 58 59 60 62 61 60 60 60 59 58 57 57 58 60 60 61 61 61 61 61 61 61 61
52 50 49 48 48 50 51 49 49 51 53 55 54 52 54 57 57 55 52 52 57 57 59 60 61 60 57 57 57 58 57 58 60 61 61 61 61 60 61 61 61 61 61
49 52 52 51 50 50 50 51 49 50 50 53 54 55 53 50 52 54 54 54 54 56 57 58 58 58 58 58 57 56 57 58 59 60 60 60 60 60 60 59 59 59 59
49 49 51 52 53 51 53 54 53 52 52 53 53 54 55 54 53 52 54 53 54 57 57 58 58 57 56 54 52 53 53 54 56 58 58 55 53 52 52 52 52 52 52
48 49 50 51 52 53 54 54 54 54 53 55 55 55 56 56 56 56 55 54 53 54 56 55 54 52 50 50 49 48 48 49 49 50 50 49 48 48 48 48 48 47 47
47 47 49 49 51 51 52 52 53 53 53 54 54 55 54 55 56 56 57 56 53 50 52 55 50 47 45 45 44 44 45 44 44 44 44 43 43 44 44 44 43 43 44
46 47 48 49 49 49 50 51 51 52 52 53 53 54 54 53 54 54 56 57 56 53 50 51 45 44 43 43 42 42 42 40 40 41 41 40 40 40 41 41 42 42 42
45 45 46 45 46 47 48 49 49 49 49 49 50 50 48 49 49 49 50 49 49 51 52 45 44 43 40 40 39 38 37 38 37 38 39 39 40 41 40 38 38 38 39
43 43 43 43 43 44 45 45 45 46 45 46 47 46 45 45 45 45 45 44 44 45 48 44 41 41 38 35 37 35 35 35 35 34 35 37 38 37 37 37 37 38 38
42 42 42 42 41 41 42 42 42 42 42 41 42 43 43 42 41 41 40 40 39 38 42 43 38 39 37 33 34 34 33 34 32 31 32 36 36 34 34 34 36 37 37
39 40 41 40 40 40 40 40 41 41 40 39 37 36 35 36 36 35 35 33 33 34 34 35 34 32 33 33 33 31 29 30 30 31 34 33 33 33 33 33 34 35 36
34 34 37 37 37 38 38 38 38 38 37 36 35 34 35 35 34 32 29 30 30 30 31 30 29 29 29 29 28 29 29 29 29 33 33 30 28 29 31 31 33 33 34
30 29 31 34 35 34 37 37 36 35 35 34 32 31 31 32 33 33 33 33 31 27 27 28 28 26 28 28 28 28 28 27 26 33 27 25 27 30 30 31 30 31 33
31 28 28 31 32 33 35 36 35 34 32 31 30 29 26 27 27 27 32 31 32 32 30 27 26 26 25 27 28 28 28 27 26 26 25 25 27 29 30 27 29 32 34
30 30 27 28 30 33 35 34 33 32 32 31 30 29 28 29 29 26 25 26 28 29 28 25 26 26 27 28 29 28 28 26 26 26 27 25 28 27 27 28 30 33 36
29 30 30 28 28 30 35 34 30 28 27 29 29 30 30 30 33 30 26 25 25 29 28 27 28 29 28 28 28 25 25 24 24 23 27 27 26 26 27 28 30 30 29
29 30 29 29 27 26 34 35 30 26 24 26 27 28 31 30 33 31 27 24 24 25 27 23 23 24 25 24 24 24 25 24 24 24 29 26 25 26 24 27 29 28 29
Wind_Speed
13 13 13 11 13 15 16 16 17 16 17 19 19 19 19 20 19 17 15 17 21 21 22 21 21 21 21 21 21 19 19 19 20 18 17 17 17 17 17 17 17 17 17
12 14 15 15 15 12 16 18 17 17 16 16 18 19 21 20 21 21 19 17 21 23 23 23 23 22 22 23 22 21 21 20 20 19 19 19 19 19 19 19 18 18 17
14 15 15 16 16 15 17 17 17 14 16 16 17 19 19 23 19 22 21 19 17 23 24 24 25 24 22 23 23 21 20 20 20 21 21 20 20 19 20 20 20 20 20
17 17 17 17 17 17 16 16 17 15 15 17 17 17 18 19 20 24 19 20 20 18 19 24 24 24 22 22 23 23 21 21 21 21 21 21 22 21 21 21 21 22 21
18 17 17 17 17 18 18 17 18 17 18 16 17 17 16 16 17 17 17 19 21 16 14 15 23 24 22 19 19 20 22 21 21 22 23 23 22 22 22 22 22 23 22
16 17 16 17 16 17 18 18 19 18 18 18 15 15 15 14 15 16 18 17 18 18 17 20 17 17 17 13 12 13 20 22 23 21 21 22 23 24 23 24 23 23 24
13 14 14 14 14 16 18 19 19 19 18 14 13 14 16 18 19 16 16 17 16 17 16 16 14 13 11 9 4 15 24 25 25 21 21 22 22 23 25 25 25 24 24
11 10 11 12 14 14 16 18 18 18 18 15 13 11 11 12 18 20 19 17 20 14 17 19 18 15 11 9 13 16 21 21 21 22 22 22 23 23 24 25 25 26 24
12 11 12 12 12 13 13 15 16 18 18 17 18 13 8 13 10 12 14 15 15 15 16 17 17 13 12 10 12 12 18 16 17 17 21 22 22 21 23 24 26 24 22
12 12 11 11 11 11 13 14 14 16 17 19 17 18 23 13 14 13 11 6 8 10 11 11 10 10 11 9 8 11 12 14 14 17 19 21 21 21 22 23 23 22 18
13 11 11 11 11 11 12 14 14 15 14 13 17 18 16 19 19 13 13 13 4 6 6 9 10 8 7 7 3 4 10 12 13 13 14 15 16 16 15 15 13 9 5
12 13 14 12 12 11 12 11 13 14 16 14 14 17 20 17 15 12 13 16 16 4 5 5 4 6 7 5 7 9 8 7 7 8 9 12 7 9 7 7 6 5 4
11 12 13 14 12 11 11 10 12 13 13 15 15 16 16 19 17 16 15 14 13 6 4 3 4 4 6 4 10 11 16 14 14 11 9 8 10 9 9 8 8 7 7
12 14 13 13 12 10 10 9 9 10 12 12 13 14 13 13 13 12 13 11 7 11 3 4 6 6 8 8 12 10 13 14 13 10 9 10 10 10 9 8 8 8 9
11 12 13 11 11 10 10 10 8 9 8 9 10 10 10 11 11 13 13 11 8 5 8 8 3 7 8 10 10 8 8 12 11 9 8 8 8 10 9 8 7 9 9
11 12 11 10 10 9 10 8 7 6 6 4 5 5 4 3 4 7 5 4 4 6 4 7 5 4 6 10 10 8 8 6 7 8 9 9 8 8 9 10 9 9 10
10 10 9 8 9 9 9 8 7 7 6 7 8 6 6 6 6 4 5 5 5 1 5 3 4 5 6 6 5 4 3 3 5 8 10 10 7 4 6 11 12 12 13
6 7 8 7 8 8 8 7 7 7 6 5 3 4 5 6 7 6 5 5 4 2 2 5 3 3 3 3 0 1 3 3 5 7 9 8 5 7 9 9 12 13 13
2 3 4 5 5 5 5 5 4 4 5 6 6 6 5 5 5 5 6 6 5 5 2 4 4 2 3 4 3 3 4 5 6 5 9 6 8 10 10 10 11 11 12
1 1 1 1 3 3 3 3 2 3 5 7 8 8 8 7 5 5 5 5 3 4 5 7 5 3 2 0 0 4 6 6 11 7 4 6 11 12 11 10 10 11 13
2 2 2 2 2 3 3 2 2 3 5 8 9 10 12 14 14 11 5 7 6 6 5 5 5 3 3 4 5 6 7 12 10 4 8 11 11 10 8 8 8 10 14
4 2 2 1 1 1 3 2 1 3 4 4 5 6 7 8 11 11 13 13 9 4 4 3 4 2 1 2 3 5 6 6 4 1 11 14 11 8 9 8 11 15 14
6 5 4 4 3 1 1 2 3 4 4 4 4 4 5 5 4 5 8 10 12 13 10 5 4 3 2 1 4 5 5 6 8 11 12 9 6 9 10 13 16 14 11
11 9 8 7 6 4 4 5 5 5 4 4 4 3 3 3 4 3 4 5 6 6 6 5 4 3 2 2 3 5 7 10 9 4 5 6 8 12 15 13 9 7 7
12 11 10 10 9 8 8 8 6 5 5 5 4 3 3 3 5 2 2 3 3 4 5 6 5 4 4 4 5 5 6 9 8 2 3 5 9 16 15 10 5 8 18
13 11 11 11 10 9 9 11 10 7 7 6 6 6 4 2 6 4 2 2 3 2 2 1 1 2 1 2 4 4 4 5 6 6 3 10 10 9 10 8 9 14 14
Wind_Direction
280 279 270 252 264 270 255 250 253 251 254 257 250 249 247 247 242 243 244 211 224 229 234 236 238 242 241 236 234 236 237 237 243 245 247 248 251 252 253 254 257 257 252
279 278 275 271 268 250 269 262 255 246 243 246 249 249 250 248 250 243 244 241 218 228 232 237 242 245 246 242 239 238 239 240 242 246 248 249 251 250 249 251 253 254 254
272 271 273 272 268 267 263 267 260 256 252 247 247 247 245 252 248 248 243 244 237 224 230 233 239 244 245 244 245 246 246 247 245 243 244 246 249 249 250 250 249 249 249
269 266 262 260 262 264 262 263 263 254 245 249 244 241 247 240 254 249 248 247 243 244 223 231 237 239 241 245 247 253 253 254 255 252 247 245 247 247 249 249 250 251 250
275 268 265 265 263 259 257 257 258 256 258 247 241 248 245 243 237 245 242 247 247 234 233 243 233 232 232 243 253 261 264 262 260 256 254 251 250 247 248 249 250 252 252
281 275 270 270 270 266 260 257 257 258 256 252 244 246 247 246 248 239 241 238 238 231 227 230 226 227 224 227 247 277 287 274 267 262 261 257 254 252 249 248 248 249 251
291 281 272 273 271 266 263 263 265 266 262 250 254 253 243 243 241 234 239 242 230 237 246 236 231 215 207 214 237 282 272 272 269 271 269 263 258 255 254 252 251 250 250
299 285 269 267 265 267 261 257 259 265 265 256 249 254 259 250 239 233 232 231 237 233 230 235 225 220 206 204 236 237 255 262 270 270 271 269 263 260 256 250 252 253 256
307 296 280 274 271 268 264 263 262 261 264 258 239 240 242 245 274 218 227 235 233 232 230 224 224 219 219 218 229 248 255 260 267 275 274 273 269 264 263 258 255 251 254
316 307 293 281 271 265 261 264 272 271 272 268 263 247 253 261 251 263 251 243 224 241 237 214 203 201 214 224 236 249 272 271 276 279 276 275 271 267 266 265 258 256 258
329 323 310 294 280 272 270 265 266 257 260 268 268 266 259 254 252 250 268 259 233 232 226 213 204 179 189 196 242 331 328 304 288 277 276 280 278 276 283 283 281 272 254
327 334 331 313 295 287 280 282 276 268 264 263 266 264 263 256 240 237 241 260 264 234 182 151 130 100 84 67 55 37 11 338 309 304 294 300 4 39 47 34 36 13 1
321 321 327 322 306 295 292 292 288 282 273 268 269 264 261 265 263 250 245 254 255 179 175 134 111 101 91 73 61 77 64 59 46 44 63 50 51 50 41 33 14 6 347
315 315 317 315 318 321 317 314 301 292 288 278 269 272 269 265 271 250 240 235 252 235 177 144 38 52 58 59 76 62 59 61 56 54 51 46 30 18 17 14 359 344 327
311 315 310 312 316 319 313 318 313 310 308 297 290 277 267 274 276 257 244 239 210 204 217 188 136 75 82 72 54 63 68 47 39 18 22 12 8 347 341 334 325 314 309
320 323 325 334 332 323 323 328 318 316 314 331 332 323 330 351 31 23 340 266 193 228 242 29 60 98 69 78 53 50 49 26 8 349 344 343 338 338 332 315 324 316 296
334 332 331 346 342 338 340 336 345 354 1 358 3 21 27 11 32 34 43 51 64 25 208 89 71 82 58 70 53 36 8 5 343 322 324 316 315 320 337 321 317 305 297
348 348 353 355 347 352 356 0 359 1 4 25 40 57 38 31 39 31 39 59 78 58 132 152 110 113 94 50 14 358 342 335 293 291 313 309 330 338 322 316 305 297 296
7 25 8 4 0 2 8 17 30 44 51 40 27 38 49 63 55 57 66 66 49 33 34 142 131 82 71 27 340 311 304 286 292 311 302 276 305 312 315 315 299 299 305
312 305 292 333 343 352 358 8 40 73 74 64 60 54 50 57 64 67 69 66 70 85 84 99 95 106 97 178 9 330 334 337 335 323 276 290 293 304 301 305 304 315 317
264 283 295 322 334 340 358 356 42 58 85 79 65 66 60 63 57 50 56 44 47 64 71 83 87 75 41 17 7 346 328 324 316 304 316 306 304 306 294 299 295 307 307
236 236 250 285 309 6 29 34 349 103 108 100 93 83 76 71 70 68 73 68 56 80 91 90 91 107 123 36 305 312 313 326 322 195 328 306 300 305 310 301 305 304 299
231 229 233 234 228 215 83 113 119 134 134 132 134 128 108 95 81 87 82 78 70 67 61 76 113 109 142 261 295 305 308 313 299 305 315 303 316 316 319 313 313 311 302
216 214 216 219 219 206 183 160 157 158 161 161 162 153 139 122 85 94 101 91 80 80 64 66 66 70 22 334 314 315 313 311 300 297 327 285 333 319 318 307 313 327 320
215 217 218 215 217 214 197 184 188 187 184 179 178 179 158 145 119 108 132 142 144 125 86 63 61 78 63 38 24 329 332 331 327 323 348 305 322 323 310 298 308 321 323
220 215 218 220 221 225 207 205 203 200 201 196 187 187 203 210 178 179 197 190 211 175 169 140 139 141 56 44 4 342 324 318 319 317 98 342 330 345 322 298 307 313 315